Location: Ç?ral? Körfezi
(36.3984°N, 30.4829°E)
Time: 09:33:33
(UTC+00:00)

Cosmos 2360 Rocket - Pass Details

Date: 04 August 2024
Orbit: 834 x 843 km, 71.0° (Epoch: 14 September)

Event Time Altitude Azimuth Distance (km) Brightness Sun altitude
Exits shadow 23:04:55 32° 62° (ENE) 1,407 3.6 -34.8°
Drops below altitude 10° 23:08:20 10° 36° (NE) 2,465 5.4 -34.6°
Sets 23:10:53 0° 30° (NNE) 3,403 6.4 -34.4°
